Date String (YYYY-MM-DD hh:mm:ss) UTC,Instrument flags,absolute air pressure of the measurement (hPa),sample flow rate (lpm),inlet stack bypass flow (lpm),air temperature of the measurement (°C),ambient temperature measured by the external sensor (°C),aerosol sample conditioner tube jacket temperature (°C),OPC LED temperature (°C),internal box temperature (°C),relative humidity of the measurement (%),span deviation,mass concentration of particles derived from Lorenz-Mie calculation of OPC scattering (μg/m³),mass concentration of particles derived from Lorenz-Mie calculation of OPC scattering (μg/m³),mass concentration of particles derived from Lorenz-Mie calculation of OPC scattering (μg/m³)
DateTimeUTC,F1_M11,P_M11,Q1_M11,Q2_M11,T1_M11,T2_M11,T3_M11,T4_M11,T5_M11,U1_M11,ZSPAN_M11,X0_M11,X2_M11,X1_M11
2024-02-20 04:00:00,SystemResetWarning,0828.1,4.99,000.00,023.8,023.1,000.0,032.4,025.7,11.7,0000.0,0010.00,0003.09,0002.28
2024-02-20 04:01:00,SystemResetWarning,0828.1,5.00,000.00,023.8,023.1,000.0,032.4,025.7,11.5,0000.0,0010.21,0003.10,0002.29
2024-02-20 04:02:00,SystemResetWarning,0828.1,5.00,000.00,023.8,023.1,000.0,032.4,025.6,11.6,0000.0,0009.40,0003.13,0002.35
2024-02-20 04:03:00,SystemResetWarning,0828.1,4.99,000.00,023.8,023.1,000.0,032.4,025.6,11.7,0000.0,0009.21,0003.14,0002.40
2024-02-20 04:04:00,SystemResetWarning,0828.1,4.99,000.00,023.8,023.1,000.0,032.4,025.6,11.7,0000.0,0008.90,0003.18,0002.45
2024-02-20 04:05:00,SystemResetWarning,0828.1,5.00,000.00,023.8,023.1,000.0,032.4,025.6,11.6,0000.0,0008.85,0003.18,0002.48
2024-02-20 04:06:00,SystemResetWarning,0827.8,5.00,000.00,023.8,023.1,000.0,032.4,025.6,11.5,0000.0,0008.50,0003.16,0002.48
2024-02-20 04:07:00,SystemResetWarning,0827.8,5.00,000.00,023.8,023.1,000.0,032.4,025.7,11.6,0000.0,0008.43,0003.24,0002.54
2024-02-20 04:08:00,SystemResetWarning,0827.8,5.00,000.00,023.8,023.1,000.0,032.4,025.6,11.7,0000.0,0009.38,0003.30,0002.60
2024-02-20 04:09:00,SystemResetWarning,0828.0,5.00,000.00,023.8,023.1,000.0,032.4,025.6,11.7,0000.0,0010.83,0003.37,0002.64
2024-02-20 04:10:00,SystemResetWarning,0828.1,5.00,000.00,023.8,023.1,000.0,032.4,025.6,11.6,0000.0,0011.39,0003.41,0002.66
2024-02-20 04:11:00,SystemResetWarning,0828.2,5.00,000.00,023.8,023.1,000.0,032.3,025.6,11.6,0000.0,0012.33,0003.45,0002.71
2024-02-20 04:12:00,SystemResetWarning,0828.0,5.00,000.00,023.8,023.1,000.0,032.3,025.6,11.4,0000.0,0011.82,0003.49,0002.78
2024-02-20 04:13:00,SystemResetWarning,0827.9,5.00,000.00,023.8,023.1,000.0,032.3,025.6,11.5,0000.0,0012.46,0003.60,0002.81
2024-02-20 04:14:00,SystemResetWarning,0828.1,5.00,000.00,023.8,023.1,000.0,032.3,025.6,11.8,0000.0,0013.49,0003.71,0002.81
2024-02-20 04:15:00,SystemResetWarning,0828.1,5.00,000.00,023.8,023.1,000.0,032.3,025.6,12.1,0000.0,0013.75,0003.77,0002.81
2024-02-20 04:16:00,SystemResetWarning,0828.1,5.01,000.00,023.8,023.0,000.0,032.3,025.6,12.4,0000.0,0014.23,0003.84,0002.81
2024-02-20 04:17:00,SystemResetWarning,0828.1,5.00,000.00,023.8,023.0,000.0,032.3,025.6,12.6,0000.0,0016.11,0003.93,0002.86
2024-02-20 04:18:00,SystemResetWarning,0828.1,5.01,000.00,023.7,023.0,000.0,032.3,025.6,12.6,0000.0,0016.59,0003.91,0002.86
2024-02-20 04:19:00,SystemResetWarning,0828.1,5.00,000.00,023.7,023.0,000.0,032.3,025.6,12.5,0000.0,0017.41,0003.89,0002.85
2024-02-20 04:20:00,SystemResetWarning,0828.0,4.99,000.00,023.7,023.0,000.0,032.3,025.5,12.5,0000.0,0016.78,0003.87,0002.85
2024-02-20 04:21:00,SystemResetWarning,0828.0,4.99,000.00,023.7,023.0,000.0,032.3,025.5,12.4,0000.0,0016.72,0003.82,0002.84
2024-02-20 04:22:00,SystemResetWarning,0828.1,5.01,000.00,023.7,023.0,000.0,032.3,025.6,12.3,0000.0,0015.59,0003.79,0002.83
2024-02-20 04:23:00,SystemResetWarning,0828.1,5.01,000.00,023.7,023.0,000.0,032.3,025.6,12.2,0000.0,0015.80,0003.80,0002.81
2024-02-20 04:24:00,SystemResetWarning,0828.1,4.99,000.00,023.7,023.0,000.0,032.3,025.6,12.1,0000.0,0016.11,0003.77,0002.83
2024-02-20 04:25:00,SystemResetWarning,0828.1,4.99,000.00,023.7,023.0,000.0,032.3,025.6,12.0,0000.0,0014.81,0003.65,0002.85
2024-02-20 04:26:00,SystemResetWarning,0828.1,5.00,000.00,023.7,023.0,000.0,032.3,025.6,12.1,0000.0,0014.74,0003.63,0002.89
2024-02-20 04:27:00,SystemResetWarning,0828.1,5.00,000.00,023.7,023.0,000.0,032.2,025.5,12.2,0000.0,0015.25,0003.61,0002.93
2024-02-20 04:28:00,SystemResetWarning,0828.1,5.00,000.00,023.7,023.0,000.0,032.2,025.5,12.3,0000.0,0014.41,0003.57,0002.95
2024-02-20 04:29:00,SystemResetWarning,0828.1,5.00,000.00,023.7,023.0,000.0,032.2,025.5,12.5,0000.0,0013.82,0003.58,0002.97
2024-02-20 04:30:00,SystemResetWarning,0828.1,5.00,000.00,023.7,023.0,000.0,032.2,025.5,12.5,0000.0,0012.66,0003.61,0003.02
2024-02-20 04:31:00,SystemResetWarning,0828.2,5.01,000.00,023.7,023.0,000.0,032.2,025.5,12.5,0000.0,0012.21,0003.62,0003.04
2024-02-20 04:32:00,SystemResetWarning,0828.2,5.00,000.00,023.7,023.0,000.0,032.2,025.5,12.4,0000.0,0011.56,0003.64,0003.05
2024-02-20 04:33:00,SystemResetWarning,0828.2,5.00,000.00,023.7,023.0,000.0,032.2,025.5,12.1,0000.0,0011.61,0003.66,0003.08
2024-02-20 04:34:00,SystemResetWarning,0828.2,5.00,000.00,023.7,023.0,000.0,032.2,025.5,12.2,0000.0,0011.43,0003.68,0003.10
2024-02-20 04:35:00,SystemResetWarning,0828.1,5.00,000.00,023.7,023.0,000.0,032.2,025.5,12.5,0000.0,0012.00,0003.66,0003.07
2024-02-20 04:36:00,SystemResetWarning,0828.1,5.00,000.00,023.6,023.0,000.0,032.2,025.5,12.5,0000.0,0012.76,0003.66,0003.06
2024-02-20 04:37:00,SystemResetWarning,0828.1,4.99,000.00,023.6,023.0,000.0,032.2,025.5,12.2,0000.0,0013.08,0003.64,0003.02
2024-02-20 04:38:00,SystemResetWarning,0828.1,5.00,000.00,023.6,022.9,000.0,032.2,025.5,11.8,0000.0,0012.62,0003.62,0002.99
2024-02-20 04:39:00,SystemResetWarning,0828.2,4.99,000.00,023.6,022.9,000.0,032.2,025.5,12.1,0000.0,0012.15,0003.63,0002.98
2024-02-20 04:40:00,SystemResetWarning,0828.1,5.00,000.00,023.6,022.9,000.0,032.2,025.5,12.2,0000.0,0012.43,0003.61,0002.95
2024-02-20 04:41:00,SystemResetWarning,0828.1,5.00,000.00,023.6,022.9,000.0,032.2,025.5,12.2,0000.0,0012.73,0003.61,0002.92
2024-02-20 04:42:00,SystemResetWarning,0828.0,5.00,000.00,023.6,022.9,000.0,032.2,025.5,12.1,0000.0,0012.08,0003.62,0002.91
2024-02-20 04:43:00,SystemResetWarning,0828.0,5.00,000.00,023.6,022.9,000.0,032.2,025.5,12.0,0000.0,0011.80,0003.60,0002.89
2024-02-20 04:44:00,SystemResetWarning,0827.8,5.00,000.00,023.6,022.9,000.0,032.2,025.5,12.1,0000.0,0011.60,0003.57,0002.86
2024-02-20 04:45:00,SystemResetWarning,0827.7,5.00,000.00,023.6,022.9,000.0,032.2,025.5,12.1,0000.0,0011.38,0003.52,0002.79
2024-02-20 04:46:00,SystemResetWarning,0827.8,5.00,000.00,023.6,022.9,000.0,032.2,025.5,11.9,0000.0,0010.49,0003.45,0002.71
2024-02-20 04:47:00,SystemResetWarning,0827.8,4.99,000.00,023.6,022.9,000.0,032.2,025.5,12.0,0000.0,0009.81,0003.37,0002.62
2024-02-20 04:48:00,SystemResetWarning,0827.9,5.00,000.00,023.6,022.9,000.0,032.2,025.5,12.0,0000.0,0009.61,0003.33,0002.58
2024-02-20 04:49:00,SystemResetWarning,0827.8,5.00,000.00,023.6,022.9,000.0,032.2,025.5,11.6,0000.0,0009.86,0003.33,0002.59
2024-02-20 04:50:00,SystemResetWarning,0827.8,5.00,000.00,023.6,022.9,000.0,032.1,025.5,11.5,0000.0,0009.97,0003.33,0002.59
2024-02-20 04:51:00,SystemResetWarning,0827.7,5.01,000.00,023.6,022.9,000.0,032.1,025.4,10.7,0000.0,0010.06,0003.32,0002.61
2024-02-20 04:52:00,SystemResetWarning,0827.7,5.00,000.00,023.6,022.8,000.0,032.1,025.4,10.5,0000.0,0009.46,0003.30,0002.60
2024-02-20 04:53:00,SystemResetWarning,0827.7,5.00,000.00,023.5,022.8,000.0,032.1,025.4,11.0,0000.0,0009.99,0003.29,0002.59
2024-02-20 04:54:00,SystemResetWarning,0827.8,5.00,000.00,023.5,022.8,000.0,032.1,025.4,11.0,0000.0,0010.11,0003.27,0002.56
2024-02-20 04:55:00,SystemResetWarning,0827.8,5.00,000.00,023.5,022.8,000.0,032.1,025.4,10.7,0000.0,0010.75,0003.28,0002.55
2024-02-20 04:56:00,SystemResetWarning,0827.8,5.00,000.00,023.5,022.8,000.0,032.1,025.4,10.5,0000.0,0011.33,0003.31,0002.59
2024-02-20 04:57:00,SystemResetWarning,0827.7,5.00,000.00,023.5,022.8,000.0,032.1,025.4,10.6,0000.0,0011.54,0003.35,0002.65
2024-02-20 04:58:00,SystemResetWarning,0827.9,5.00,000.00,023.5,022.8,000.0,032.1,025.4,10.9,0000.0,0011.58,0003.39,0002.68
2024-02-20 04:59:00,SystemResetWarning,0827.8,5.00,000.00,023.5,022.8,000.0,032.1,025.4,10.6,0000.0,0010.82,0003.42,0002.69
